Naples, Italy

6:58 AM CET on March 25, 2017 (GMT +0100)
Naples

Weather History for LIRN - November, 2012

Change the Weather History Date:

Sunday, November 4, 2012

  Actual Average Record
Temperature  
Mean Temperature 64 °F -  
Max Temperature 69 °F 62 °F 77 °F (2008)
Min Temperature 59 °F 45 °F 39 °F (2006)
Degree Days  
Heating Degree Days 1    
Growing Degree Days 14 (Base 50)    
Moisture  
Dew Point 60 °F    
Average Humidity 81    
Maximum Humidity 88    
Minimum Humidity 73    
Precipitation  
Precipitation 0.00 in 0.21 in - ()
Sea Level Pressure  
Sea Level Pressure 29.96 in    
Wind  
Wind Speed 5 mph ()    
Max Wind Speed 15 mph    
Max Gust Speed 25 mph    
Visibility 5.6 miles    
Events Rain    
Averages and records for this station are not official NWS values.
T = Trace of Precipitation, MM = Missing Value Source: Averaged Metar Reports

Daily Weather History Graph

Daily Weather History Graph

Search for Another Location

Airport or City:

Trip Planner

Search our weather history database for the weather conditions in past years. The results will help you decide how hot, cold, wet, or windy it might be!

Date:

Astronomy

Nov. 04, 2012 Rise Set
Actual Time 6:37 AM CET 4:55 PM CET
Civil Twilight 6:08 AM CET 5:23 PM CET
Nautical Twilight 5:35 AM CET 5:56 PM CET
Astronomical Twilight 5:03 AM CET 6:28 PM CET
Moon 9:16 PM CET (11/4) 11:10 AM CET (11/4)
Length of Visible Light 11h 15m
Length of Day
10h 17m
Waning Gibbous, 74% of the Moon is Illuminated
Nov 4
Waning Gibbous
Nov 7
Last Quarter
Nov 13
New
Nov 20
First Quarter
Nov 28
Full

Hourly Weather History & Observations

Time (CET) Temp. Dew Point Humidity Pressure Visibility Wind Dir Wind Speed Gust Speed Precip Events Conditions
12:20 AM 59.0 °F 53.6 °F 82% 30.04 in 6.2 mi Variable 2.3 mph - N/A   Scattered Clouds
12:50 AM 60.8 °F 53.6 °F 77% 30.04 in 6.2 mi NNW 2.3 mph - N/A   Scattered Clouds
1:20 AM 60.8 °F 53.6 °F 77% 30.04 in 6.2 mi Variable 1.2 mph - N/A   Scattered Clouds
2:20 AM 60.8 °F 53.6 °F 77% 30.04 in 6.2 mi Calm Calm - N/A   Scattered Clouds
2:50 AM 60.8 °F 53.6 °F 77% 30.04 in 6.2 mi Variable 2.3 mph - N/A   Scattered Clouds
3:20 AM 60.8 °F 53.6 °F 77% 30.01 in 6.2 mi Calm Calm - N/A   Scattered Clouds
3:50 AM 60.8 °F 53.6 °F 77% 30.01 in 6.2 mi Calm Calm - N/A   Scattered Clouds
4:20 AM 60.8 °F 53.6 °F 77% 30.01 in 6.2 mi NE 2.3 mph - N/A   Scattered Clouds
4:50 AM 60.8 °F 55.4 °F 82% 29.98 in 6.2 mi NE 2.3 mph - N/A   Scattered Clouds
5:20 AM 60.8 °F 57.2 °F 88% 29.98 in 6.2 mi Calm Calm - N/A   Scattered Clouds
5:50 AM 62.6 °F 57.2 °F 82% 29.98 in 5.0 mi Variable 2.3 mph - N/A   Mostly Cloudy
6:20 AM 64.4 °F 59.0 °F 83% 29.98 in 5.0 mi Variable 2.3 mph - N/A   Mostly Cloudy
6:50 AM 64.4 °F 59.0 °F 83% 29.98 in 6.2 mi South 3.5 mph - N/A   Mostly Cloudy
7:20 AM 66.2 °F 59.0 °F 78% 30.01 in 6.2 mi South 4.6 mph - N/A   Mostly Cloudy
7:50 AM 66.2 °F 59.0 °F 78% 30.01 in 6.2 mi South 6.9 mph - N/A   Mostly Cloudy
8:20 AM 68.0 °F 59.0 °F 73% 30.01 in 6.2 mi South 10.4 mph - N/A   Mostly Cloudy
8:50 AM 68.0 °F 59.0 °F 73% 30.01 in 6.2 mi South 15.0 mph - N/A   Mostly Cloudy
9:20 AM 66.2 °F 59.0 °F 78% 30.01 in 6.2 mi South 10.4 mph - N/A   Mostly Cloudy
9:50 AM 68.0 °F 60.8 °F 78% 30.01 in 6.2 mi South 9.2 mph - N/A   Mostly Cloudy
10:20 AM 68.0 °F 60.8 °F 78% 30.01 in 6.2 mi South 10.4 mph - N/A   Drizzle
10:50 AM 68.0 °F 60.8 °F 78% 30.01 in 6.2 mi South 8.1 mph - N/A   Mostly Cloudy
11:20 AM 68.0 °F 62.6 °F 83% 29.98 in 6.2 mi South 8.1 mph - N/A   Mostly Cloudy
11:50 AM 68.0 °F 62.6 °F 83% 29.98 in 6.2 mi South 8.1 mph - N/A   Mostly Cloudy
12:20 PM 68.0 °F 62.6 °F 83% 29.98 in 6.2 mi South 9.2 mph - N/A   Light Drizzle
12:50 PM 68.0 °F 62.6 °F 83% 29.98 in - South 8.1 mph - N/A   Mostly Cloudy
1:20 PM 68.0 °F 62.6 °F 83% 29.95 in 6.2 mi South 10.4 mph - N/A   Light Drizzle
1:50 PM 68.0 °F 62.6 °F 83% 29.95 in 6.2 mi South 10.4 mph - N/A   Mostly Cloudy
2:20 PM 68.0 °F 62.6 °F 83% 29.95 in 6.2 mi South 10.4 mph - N/A Rain Light Rain
2:50 PM 66.2 °F 62.6 °F 88% 29.92 in 6.2 mi SSW 6.9 mph - N/A   Light Drizzle
3:20 PM 66.2 °F 62.6 °F 88% 29.95 in 1.9 mi SSW 6.9 mph - N/A Rain Rain
3:50 PM 66.2 °F 62.6 °F 88% 29.95 in 1.9 mi SSW 10.4 mph - N/A Rain Light Rain
4:20 PM 66.2 °F 62.6 °F 88% 29.92 in 5.0 mi South 8.1 mph - N/A Rain Light Rain
4:50 PM 66.2 °F 62.6 °F 88% 29.92 in 5.0 mi South 5.8 mph - N/A Rain Light Rain
5:20 PM 68.0 °F 62.6 °F 83% 29.92 in 5.0 mi Variable 5.8 mph - N/A Rain Light Rain
5:50 PM 68.0 °F 62.6 °F 83% 29.92 in 5.0 mi South 8.1 mph - N/A   Scattered Clouds
6:20 PM 69.8 °F 62.6 °F 78% 29.92 in 5.0 mi South 9.2 mph - N/A   Mostly Cloudy
6:50 PM 68.0 °F 62.6 °F 83% 29.92 in 5.0 mi South 10.4 mph - N/A   Mostly Cloudy
7:20 PM 69.8 °F 62.6 °F 78% 29.92 in 5.0 mi South 12.7 mph - N/A   Mostly Cloudy
7:50 PM 69.8 °F 62.6 °F 78% 29.92 in 5.0 mi South 11.5 mph - N/A   Scattered Clouds
8:20 PM 69.8 °F 62.6 °F 78% 29.89 in 5.0 mi South 10.4 mph - N/A   Scattered Clouds
8:50 PM 69.8 °F 62.6 °F 78% 29.89 in 6.2 mi South 12.7 mph - N/A   Scattered Clouds
9:20 PM 69.8 °F 62.6 °F 78% 29.92 in 6.2 mi South 13.8 mph 25.3 mph N/A   Scattered Clouds
9:50 PM 68.0 °F 64.4 °F 88% 29.89 in 3.1 mi South 11.5 mph - N/A Rain Rain
10:20 PM 69.8 °F 62.6 °F 78% 29.89 in 5.0 mi South 12.7 mph - N/A Rain Light Rain
10:50 PM 69.8 °F 62.6 °F 78% 29.89 in 5.0 mi South 13.8 mph - N/A   Scattered Clouds
11:20 PM 68.0 °F 62.6 °F 83% 29.86 in 5.0 mi South 12.7 mph - N/A Rain Rain
11:50 PM 69.8 °F 62.6 °F 78% 29.86 in 5.0 mi South 12.7 mph - N/A   Mostly Cloudy